Location: Bremen
(53.0793°N, 8.8017°E)
Time: 22:11:34
(UTC+02:00)

Vanguard 2 Rocket - Pass Details

Date: 19 April 2024
Orbit: 556 x 3304 km, 32.9° (Epoch: 20 May)

Event Time Altitude Azimuth Distance (km) Brightness Sun altitude
Rises 20:24:57 0° 179° (S) 6,112 10.9 0.3°
Reaches altitude 10° 20:31:58 10° 158° (SSE) 5,626 10.5 -0.7°
Maximum altitude 20:39:26 14° 132° (SE) 5,654 10.4 -1.8°
Drops below altitude 10° 20:47:33 10° 107° (ESE) 6,236 10.5 -2.9°
Sets 20:56:11 0° 88° (E) 7,257 10.9 -4.1°
